Location: Bli��� Lhota
(48.7570°N, 14.0120°E)
Time: 04:52:26
(UTC+00:00)

Cosmos 1707 - Pass Details

Date: 18 September 2020
Orbit: 515 x 530 km, 82.5° (Epoch: 29 October)

Event Time Altitude Azimuth Distance (km) Brightness Sun altitude
Rises 17:40:03 0° 359° (N) 2,655 6.4 -5.8°
Reaches altitude 10° 17:42:26 10° 11° (NNE) 1,760 5.4 -6.2°
Maximum altitude 17:45:48 28° 72° (ENE) 999 3.7 -6.7°
Drops below altitude 10° 17:49:07 10° 133° (SE) 1,743 4.9 -7.3°
Enters shadow 17:50:48 - 142° (SE) 2,364 5.6 -7.6°
